SWA2015 KMDW-KMSY

Flight info

Callsign SWA2015
Flight time N/A
Altitude 38000
Route PEKUE PIGGG QUANE CARET ROEZZ RZC ELD MCB TRSSH1
Aircraft B738/M-SADE2E3GIJ4RWZ/LB1D1

Departure

Time 2026-04-30 22:47
Airport Chicago Midway International Airport (KMDW)

Arrival

Time N/A
Airport Louis Armstrong New Orleans International Airport (KMSY)
Time Latitude Longitude Altitude Speed Heading
2026-04-30 22:25 41.78701 -87.74590 628 ft 0 kts 135°
2026-04-30 22:27 41.78705 -87.74595 628 ft 0 kts 135°
2026-04-30 22:28 41.78701 -87.74590 628 ft 0 kts 135°
2026-04-30 22:37 41.78713 -87.74606 628 ft 4 kts 135°
2026-04-30 22:37 41.78751 -87.74657 628 ft 4 kts 135°
2026-04-30 22:38 41.78765 -87.74675 628 ft 1 kts 135°
2026-04-30 22:41 41.78764 -87.74674 628 ft 1 kts 136°
2026-04-30 22:42 41.78652 -87.74798 630 ft 9 kts 224°
2026-04-30 22:43 41.78529 -87.74954 633 ft 14 kts 223°
2026-04-30 22:43 41.78395 -87.75124 637 ft 13 kts 225°
2026-04-30 22:44 41.78267 -87.75285 628 ft 12 kts 223°
2026-04-30 22:45 41.77932 -87.75712 631 ft 11 kts 226°
2026-04-30 22:45 41.77943 -87.75876 627 ft 5 kts 356°
2026-04-30 22:46 41.77996 -87.75833 631 ft 29 kts 42°
2026-04-30 22:47 41.80961 -87.72145 2604 ft 195 kts 41°
2026-04-30 22:47 41.83084 -87.69371 3294 ft 232 kts 44°
2026-04-30 22:48 41.85939 -87.67106 3886 ft 249 kts 359°
2026-04-30 22:49 41.89410 -87.71286 5659 ft 245 kts 272°
2026-04-30 22:49 41.88921 -87.78244 7758 ft 252 kts 262°
2026-04-30 22:50 41.88052 -87.87819 10475 ft 273 kts 263°
2026-04-30 22:51 41.87571 -87.93276 10807 ft 316 kts 263°
2026-04-30 22:51 41.87032 -87.99475 11252 ft 351 kts 263°
2026-04-30 22:52 41.86747 -88.02753 11816 ft 355 kts 263°
2026-04-30 22:52 41.86170 -88.09356 13304 ft 357 kts 264°
2026-04-30 22:53 41.85581 -88.16080 14630 ft 363 kts 264°
2026-04-30 22:53 41.84638 -88.22748 16060 ft 366 kts 257°
2026-04-30 22:53 41.84002 -88.25884 16685 ft 369 kts 257°
2026-04-30 22:54 41.82600 -88.32707 18047 ft 373 kts 257°
2026-04-30 22:55 41.80557 -88.42851 19613 ft 382 kts 257°
2026-04-30 22:55 41.79177 -88.49783 20566 ft 388 kts 257°
2026-04-30 22:56 41.78003 -88.55677 21348 ft 393 kts 257°
2026-04-30 22:56 41.75864 -88.66379 22741 ft 400 kts 258°
2026-04-30 22:57 41.74410 -88.73623 23600 ft 405 kts 258°
2026-04-30 22:57 41.72933 -88.80950 24352 ft 408 kts 258°
2026-04-30 22:58 41.71448 -88.88291 25137 ft 409 kts 258°
2026-04-30 22:59 41.69215 -88.99284 26157 ft 412 kts 258°
2026-04-30 22:59 41.66969 -89.10268 27607 ft 403 kts 258°